EDT,Max TemperatureF,Mean TemperatureF,Min TemperatureF,Max Dew PointF,MeanDew PointF,Min DewpointF,Max Humidity, Mean Humidity, Min Humidity, Max Sea Level PressureIn, Mean Sea Level PressureIn, Min Sea Level PressureIn, Max VisibilityMiles, Mean VisibilityMiles, Min VisibilityMiles, Max Wind SpeedMPH, Mean Wind SpeedMPH, Max Gust SpeedMPH,PrecipitationIn, CloudCover, Events, WindDirDegrees
2013-7-1,80,74,69,73,70,68,100,90,69,30.03,29.95,29.89,10,9,1,9,3,16,0.75,7,Rain-Thunderstorm,173
2013-7-2,75,73,71,72,71,70,100,96,88,30.22,30.14,30.03,10,10,2,9,5,16,0.25,8,Rain,192
2013-7-3,82,76,71,73,72,70,100,92,70,30.28,30.24,30.19,10,10,3,12,4,18,0.14,5,Rain-Thunderstorm,172
2013-7-4,84,78,71,73,71,68,100,83,62,30.32,30.27,30.22,10,10,10,8,4,16,0.00,5,Rain-Thunderstorm,172
2013-7-5,86,78,71,72,71,70,100,80,58,30.31,30.27,30.20,10,10,10,9,3,,0.00,4,,188
2013-7-6,86,78,69,75,71,68,100,82,58,30.29,30.24,30.17,10,10,7,9,4,,0.03,5,Rain,197
2013-7-7,86,77,68,73,71,68,100,86,62,30.23,30.18,30.10,10,9,2,15,4,28,0.36,4,Rain-Thunderstorm,217
2013-7-8,86,77,68,73,70,66,100,85,55,30.22,30.18,30.14,10,9,1,7,2,,1.52,4,Rain-Thunderstorm,224
2013-7-9,82,76,71,77,73,68,100,93,74,30.19,30.16,30.10,10,9,2,10,3,,0.19,4,Rain-Thunderstorm,204
2013-7-10,86,78,69,73,72,70,100,85,62,30.14,30.06,29.98,10,9,7,24,6,32,0.56,4,Rain-Thunderstorm,211
2013-7-11,77,74,71,73,72,72,100,98,89,30.01,29.96,29.92,10,9,5,8,3,,0.07,7,Rain-Thunderstorm,197
2013-7-12,71,70,68,72,69,68,100,98,88,30.07,29.98,29.91,10,8,2,8,4,,0.17,8,Rain-Thunderstorm,18
2013-7-13,77,72,68,73,71,68,100,97,83,30.23,30.14,30.06,10,8,2,9,5,,0.03,7,Rain-Thunderstorm,62
2013-7-14,86,78,69,73,71,68,100,84,55,30.35,30.30,30.23,10,10,7,12,5,,0.00,5,,101
2013-7-15,87,76,66,73,69,66,100,80,49,30.37,30.33,30.29,10,9,0,6,1,,0.00,1,Fog,88
2013-7-16,89,76,64,77,71,64,100,81,52,30.31,30.28,30.23,10,8,2,5,0,,0.00,1,Thunderstorm,272
2013-7-17,89,81,73,77,73,68,100,79,49,30.27,30.22,30.16,10,9,4,8,2,,0.00,2,,44
2013-7-18,91,80,69,77,73,70,100,81,52,30.19,30.15,30.07,10,8,2,8,1,,0.00,2,,229
2013-7-19,87,79,71,73,72,72,100,79,58,30.13,30.08,30.02,10,8,2,13,3,18,0.00,1,,219
2013-7-20,86,78,71,75,72,70,100,82,62,30.05,30.01,29.95,10,10,7,14,7,18,0.00,3,Thunderstorm,220
2013-7-21,87,79,71,73,72,70,100,87,62,30.02,29.99,29.94,10,9,4,9,5,18,0.06,5,Rain-Thunderstorm,214
2013-7-22,86,78,69,73,71,70,100,87,58,29.99,29.92,29.86,10,7,0,12,2,16,0.00,4,Fog,223
2013-7-23,86,78,71,73,71,68,100,80,58,29.87,29.82,29.76,10,10,5,9,4,,0.00,3,,251
2013-7-24,87,76,66,72,69,64,100,78,46,29.90,29.82,29.77,10,8,2,8,1,,0.00,0,,333
2013-7-25,78,70,62,70,65,63,100,84,61,30.08,29.97,29.89,10,10,5,12,5,16,0.09,5,Rain-Thunderstorm,21
2013-7-26,80,70,59,68,62,59,100,79,54,30.15,30.10,30.06,10,9,2,6,1,,0.00,3,,145
2013-7-27,80,72,64,72,67,64,100,89,58,30.10,30.04,29.97,10,8,2,10,2,9,0.47,3,Rain-Thunderstorm,187
2013-7-28,84,75,66,72,69,66,100,84,55,30.03,29.98,29.96,10,8,0,10,2,,0.00,4,Fog-Rain-Thunderstorm,222
2013-7-29,82,72,62,72,64,55,100,78,42,30.20,30.12,30.02,10,9,1,15,3,22,0.05,1,Rain-Thunderstorm,317
2013-7-30,82,70,57,70,63,57,100,81,51,30.26,30.21,30.18,10,10,5,5,0,,0.00,0,,42
2013-7-31,80,74,68,72,69,68,100,88,65,30.19,30.13,30.03,10,8,1,15,1,26,0.65,5,Rain,153